Location: São Paulo
(23.5507°S, 46.6334°W)
Time: 07:31:45
(UTC-03:00)

Vanguard 3 - Pass Details

Date: 18 February 2026
Orbit: 507 x 3205 km, 33.4° (Epoch: 7 March)

Event Time Altitude Azimuth Distance (km) Brightness Sun altitude
Exits shadow 03:20:53 74° 291° (WNW) 1,632 8.3 -33.6°
Maximum altitude 03:21:59 89° 208° (SSW) 1,662 8.5 -33.4°
Drops below altitude 10° 03:36:16 10° 115° (ESE) 5,266 12.2 -30.6°
Sets 03:41:14 0° 114° (ESE) 6,622 13.0 -29.6°
